Simultaneous Nadir Overpasses (SNOs) Predictions

Prediction of SNOs between FY3D and LANDSAT-8 Satellite Orbit:

Table of predicted SNOs for the next 14.0 days since TLE Epoch: 3/30/2024
Index Date (FY3D) Time (FY3D) Lat,Lon (FY3D) SZA (FY3D ) Date (LANDSAT-8) Time (LANDSAT-8) Lat,Lon (LANDSAT-8) SZA (LANDSAT-8 ) Distance(km) Time Diff (sec)
1 03/31/2024 07:38:45 -74.59,-112.74 109.88 03/31/2024 07:39:54 -74.50,-110.92 109.96 54.83 69
2 03/31/2024 08:29:22 74.11, 55.84 69.64 03/31/2024 08:29:27 74.11, 55.81 69.63 0.74 5
3 03/31/2024 09:20:05 -74.06,-136.72 110.43 03/31/2024 09:18:56 -74.04,-136.72 110.46 2.78 69
4 04/02/2024 23:56:09 -74.12, 4.17 111.37 04/02/2024 23:56:30 -74.14, 4.11 111.35 2.66 21
5 04/03/2024 00:46:55 74.08, 171.58 68.58 04/03/2024 00:45:57 74.06, 171.57 68.55 2.55 58
6 04/05/2024 15:22:59 74.16, -47.57 67.66 04/05/2024 15:23:30 74.17, -47.59 67.67 1.42 31
7 04/05/2024 16:13:42 -74.10, 119.88 112.41 04/05/2024 16:12:59 -74.10, 119.90 112.41 0.48 43
8 04/08/2024 06:49:46 -74.19, -99.30 113.30 04/08/2024 06:50:32 -74.17, -99.34 113.32 2.45 46
9 04/08/2024 07:40:31 74.10, 68.23 66.61 04/08/2024 07:39:58 74.13, 68.21 66.63 3.34 33
10 04/10/2024 22:16:34 74.21,-150.99 65.75 04/10/2024 22:17:29 74.21,-151.01 65.75 0.62 55
11 04/10/2024 23:07:17 -74.15, 16.47 114.33 04/10/2024 23:06:58 -74.15, 16.49 114.33 0.55 19



Historial Predications of SNOs between FY3D and LANDSAT-8
